K9JWM Weather Reports


Display with metric or nautical units.
time (UTC)temp
F
wind
direction
speed
MPH
gust
MPH
rain 1hr
in
rain 24hr
in
rain mn
in
humidity
%
barometer
mb
20260503201004 64 275 14.0 25.0 0.00 0.00 0.00 31 1002.3
20260503200004 65 263 8.0 16.0 0.00 0.00 0.00 32 1002.2
20260503195005 64 337 7.0 21.0 0.00 0.00 0.00 34 1002.1
20260503194710 64 247 5.0 6.0 0.00 0.00 0.00 32 1002.2
20260503194004 65 263 9.0 16.0 0.00 0.00 0.00 31 1002.4
20260503193004 64 279 7.0 23.0 0.00 0.00 0.00 32 1002.4
20260503191709 63 261 9.0 15.0 0.00 0.00 0.00 33 1002.6
20260503191004 64 293 10.0 22.0 0.00 0.00 0.00 35 1002.6
20260503185004 63 256 6.0 17.0 0.00 0.00 0.00 37 1002.7
20260503184710 63 268 7.0 7.0 0.00 0.00 0.00 38 1002.7
20260503183004 63 254 5.0 14.0 0.00 0.00 0.00 36 1002.8
20260503182005 63 260 7.0 17.0 0.00 0.00 0.00 39 1002.9
20260503181710 64 262 8.0 10.0 0.00 0.00 0.00 37 1003.0
20260503181005 63 273 2.0 15.0 0.00 0.00 0.00 39 1002.8
20260503180005 63 260 10.0 17.0 0.00 0.00 0.00 39 1003.2
20260503175004 62 281 7.0 18.0 0.00 0.00 0.00 40 1003.3
20260503174710 63 257 10.0 16.0 0.00 0.00 0.00 38 1003.2
20260503174004 63 318 4.0 15.0 0.00 0.00 0.00 43 1003.2
20260503173004 62 346 6.0 17.0 0.00 0.00 0.00 42 1003.3
20260503171710 62 248 10.0 15.0 0.00 0.00 0.00 44 1003.3
20260503151004 57 281 7.0 12.0 0.00 0.00 0.00 53 1004.0
20260503150210 57 268 9.0 12.0 0.00 0.00 0.00 56 1004.0
20260503140210 56 253 6.0 9.0 0.00 0.00 0.00 59 1004.1
20260503131004 50 228 6.0 9.0 0.00 0.00 0.00 75 1004.3
20260503130209 49 224 5.0 6.0 0.00 0.00 0.00 76 1004.3
20260503110209 46 206 2.0 5.0 0.00 0.00 0.00 78 1004.3
20260503100210 48 208 2.0 3.0 0.00 0.00 0.00 76 1005.0
20260503090209 50 202 0.0 3.0 0.00 0.00 0.00 72 1005.4
20260503081004 51 200 2.0 5.0 0.00 0.00 0.00 72 1006.1
20260503080209 51 214 1.0 3.0 0.00 0.00 0.00 71 1006.4
20260503071710 52 223 3.0 5.0 0.00 0.00 0.00 68 1007.2
20260503071004 53 244 4.0 9.0 0.00 0.00 0.00 70 1007.4
20260503070209 53 245 6.0 9.0 0.00 0.00 0.00 68 1007.7
20260503060210 54 258 5.0 9.0 0.00 0.00 0.00 61 1008.1
20260503054709 54 256 6.0 8.0 0.00 0.00 0.00 61 1008.2
20260503054004 54 244 5.0 7.0 0.00 0.00 0.00 64 1008.2
20260503053210 54 246 3.0 5.0 0.00 0.00 0.00 64 1008.1
20260503052004 55 254 6.0 8.0 0.00 0.00 0.00 62 1008.4
20260503051709 54 248 6.0 7.0 0.00 0.00 0.00 62 1008.3
20260503051004 55 243 5.0 8.0 0.00 0.00 0.00 62 1008.3
20260503050210 55 252 5.0 7.0 0.00 0.00 0.00 61 1008.3
20260503045004 55 241 9.0 12.0 0.00 0.00 0.00 60 1008.3
20260503044709 55 248 7.0 8.0 0.00 0.00 0.00 61 1008.3
20260503044004 55 243 11.0 20.0 0.00 0.00 0.00 60 1008.5
20260503043209 55 250 12.0 15.0 0.00 0.00 0.00 60 1008.6
20260503043003 55 241 11.0 16.0 0.00 0.00 0.00 58 1008.5
20260503042004 54 225 9.0 13.0 0.00 0.00 0.00 59 1008.8
20260503041708 54 234 6.0 7.0 0.00 0.00 0.00 57 1008.8
20260503040209 53 235 7.0 9.0 0.00 0.00 0.00 56 1008.9
20260503040004 53 231 6.0 12.0 0.00 0.00 0.00 57 1009.0
20260503035003 53 220 4.0 7.0 0.00 0.00 0.00 55 1009.0
20260503034709 53 232 6.0 7.0 0.00 0.00 0.00 55 1009.0
20260503034004 53 230 5.0 8.0 0.00 0.00 0.00 54 1009.2
20260503033209 53 243 6.0 8.0 0.00 0.00 0.00 56 1009.3
20260503033004 53 241 5.0 7.0 0.00 0.00 0.00 58 1009.4
20260503032004 53 245 5.0 7.0 0.00 0.00 0.00 54 1009.6
20260503031709 52 247 5.0 5.0 0.00 0.00 0.00 56 1009.6
20260503031003 52 219 4.0 8.0 0.00 0.00 0.00 54 1009.6
20260503030209 52 216 3.0 6.0 0.00 0.00 0.00 52 1009.7
20260503030004 52 218 3.0 6.0 0.00 0.00 0.00 54 1009.7
20260503025004 52 222 3.0 8.0 0.00 0.00 0.00 52 1009.8
20260503024709 52 213 3.0 3.0 0.00 0.00 0.00 51 1009.7
20260503024004 52 195 3.0 6.0 0.00 0.00 0.00 49 1009.7
20260503023208 53 192 3.0 3.0 0.00 0.00 0.00 49 1009.8
20260503023004 53 194 2.0 6.0 0.00 0.00 0.00 50 1009.9
20260503022003 53 198 2.0 5.0 0.00 0.00 0.00 48 1010.0
20260503021708 53 195 1.0 3.0 0.00 0.00 0.00 47 1010.0
20260503021004 54 195 2.0 3.0 0.00 0.00 0.00 47 1010.0
20260503020208 54 202 1.0 3.0 0.00 0.00 0.00 47 1010.1
20260503020004 54 202 1.0 5.0 0.00 0.00 0.00 47 1010.1
20260503015003 54 202 2.0 5.0 0.00 0.00 0.00 46 1010.1
20260503014709 55 208 1.0 3.0 0.00 0.00 0.00 46 1010.1
20260503014004 55 206 2.0 7.0 0.00 0.00 0.00 45 1010.1
20260503013208 55 211 2.0 3.0 0.00 0.00 0.00 45 1010.1
20260503013004 55 204 3.0 6.0 0.00 0.00 0.00 45 1010.1
20260503012003 55 227 3.0 6.0 0.00 0.00 0.00 46 1010.1
20260503011708 56 205 3.0 6.0 0.00 0.00 0.00 45 1010.2
20260503011004 56 217 3.0 6.0 0.00 0.00 0.00 46 1010.2
20260503010211 56 237 3.0 6.0 0.00 0.00 0.00 47 1010.2
20260503010005 56 230 5.0 8.0 0.00 0.00 0.00 45 1010.2
20260503005006 56 229 5.0 9.0 0.00 0.00 0.00 47 1010.3
20260503004711 56 222 6.0 7.0 0.00 0.00 0.00 44 1010.3
20260503004006 57 231 6.0 12.0 0.00 0.00 0.00 46 1010.4
20260503003211 57 232 7.0 10.0 0.00 0.00 0.00 44 1010.4
20260503003005 57 226 7.0 10.0 0.00 0.00 0.00 46 1010.5
20260503001710 57 229 6.0 6.0 0.00 0.00 0.00 49 1010.6
20260503001005 57 226 5.0 9.0 0.00 0.00 0.00 46 1010.7
20260503000211 57 247 7.0 9.0 0.00 0.00 0.00 45 1010.8
20260503000005 57 243 6.0 12.0 0.00 0.00 0.00 45 1010.9
20260502235005 57 241 12.0 16.0 0.00 0.00 0.00 44 1010.9
20260502234710 57 254 9.0 12.0 0.00 0.00 0.00 43 1011.0
20260502233210 57 255 12.0 14.0 0.00 0.00 0.00 42 1011.1
20260502233005 57 244 15.0 22.0 0.00 0.00 0.00 44 1011.2
20260502232006 58 237 12.0 15.0 0.00 0.00 0.00 45 1011.2
20260502231711 58 235 7.0 12.0 0.00 0.00 0.00 44 1011.2
20260502231005 58 231 13.0 20.0 0.00 0.00 0.00 42 1011.2
20260502230211 58 247 16.0 20.0 0.00 0.00 0.00 42 1011.3
20260502230005 58 232 13.0 20.0 0.00 0.00 0.00 39 1011.2
20260502225005 58 242 10.0 18.0 0.00 0.00 0.00 39 1011.4
20260502224711 58 235 12.0 12.0 0.00 0.00 0.00 41 1011.4
20260502224006 58 258 13.0 16.0 0.00 0.00 0.00 40 1011.3
20260502223210 58 243 9.0 14.0 0.00 0.00 0.00 38 1011.5
20260502223006 58 243 12.0 18.0 0.00 0.00 0.00 40 1011.5
20260502221710 58 246 10.0 16.0 0.00 0.00 0.00 36 1011.7
20260502221005 58 222 9.0 16.0 0.00 0.00 0.00 34 1011.9
20260502220211 57 261 8.0 10.0 0.00 0.00 0.00 35 1011.9
20260502220006 57 240 7.0 13.0 0.00 0.00 0.00 36 1011.9
20260502215005 57 264 8.0 13.0 0.00 0.00 0.00 37 1012.0
20260502214711 57 265 2.0 6.0 0.00 0.00 0.00 37 1012.1
20260502214005 57 232 10.0 18.0 0.00 0.00 0.00 36 1012.2
20260502213210 57 230 7.0 9.0 0.00 0.00 0.00 36 1012.1
20260502213005 57 236 10.0 14.0 0.00 0.00 0.00 35 1012.2
20260502211710 58 258 10.0 13.0 0.00 0.00 0.00 36 1012.2
20260502211005 58 262 8.0 15.0 0.00 0.00 0.00 35 1012.2
20260502210210 58 264 9.0 13.0 0.00 0.00 0.00 36 1012.5
20260502210006 58 246 9.0 18.0 0.00 0.00 0.00 36 1012.5
20260502204711 57 225 12.0 13.0 0.00 0.00 0.00 33 1012.7
20260502204005 57 224 11.0 26.0 0.00 0.00 0.00 35 1012.9
20260502203210 57 228 13.0 18.0 0.00 0.00 0.00 37 1012.9
20260502203005 56 228 6.0 17.0 0.00 0.00 0.00 35 1012.9
20260502202006 57 244 13.0 17.0 0.00 0.00 0.00 37 1013.0
20260502201712 57 238 12.0 15.0 0.00 0.00 0.00 37 1013.2